Printer-friendly version

IAU Minor Planet Center

Minor Planet Center

(11) Parthenope

Orbital Elements

The following orbital elements are taken from MPC 24085:
   (11) Parthenope
Epoch 2007 Apr. 10.0 TT = JDT 2454200.5  (M-c)          Bowell
M 230.35564              (2000.0)            P               Q
n   0.25667958     Peri.  195.25897     +0.77520987     +0.62829496
a   2.4521207      Node   125.62831     -0.57080881     +0.74114342
e   0.1001911      Incl.    4.62477     -0.27060480     +0.23654149
P   3.84           H    6.55          G   0.15
From 2613 observations at 61 oppositions, 1850-1993, mean residual 0".57.
An explanation of the orbital elements is available.

These orbital elements are also available in forms suitable for loading into a number of popular planetarium-type software programs.


Ephemeris

The following ephemeris is at intervals of five days. A daily ephemeris covering the same time interval is also available.

Personalized ephemerides for this object (and others) can be generated using the MPES.

Date    TT    R. A. (2000) Decl.     Delta      r     Elong.  Phase     V
2007 01 01    12 15.05   +01 42.3    2.370    2.679    97.3    21.4    11.6
2007 01 06    12 18.29   +01 32.5    2.300    2.677   101.6    21.1    11.5
2007 01 11    12 21.06   +01 26.2    2.231    2.675   106.0    20.7    11.5
2007 01 16    12 23.33   +01 23.8    2.164    2.672   110.5    20.2    11.4
2007 01 21    12 25.04   +01 25.5    2.098    2.670   115.2    19.5    11.3
2007 01 26    12 26.17   +01 31.3    2.035    2.668   120.1    18.6    11.2
2007 01 31    12 26.70   +01 41.4    1.975    2.665   125.1    17.6    11.1
2007 02 05    12 26.60   +01 55.7    1.918    2.663   130.2    16.4    11.0
2007 02 10    12 25.85   +02 14.3    1.865    2.660   135.5    15.1    10.9
2007 02 15    12 24.46   +02 37.1    1.816    2.657   141.0    13.5    10.7
2007 02 20    12 22.43   +03 03.6    1.773    2.655   146.6    11.8    10.6
2007 02 25    12 19.80   +03 33.5    1.735    2.652   152.3    10.0    10.5
2007 03 02    12 16.62   +04 06.1    1.703    2.649   158.1     8.0    10.4
2007 03 07    12 12.98   +04 40.7    1.678    2.645   163.8     6.0    10.3
2007 03 12    12 08.96   +05 16.4    1.660    2.642   169.3     4.0    10.1
2007 03 17    12 04.68   +05 52.2    1.648    2.639   173.5     2.4    10.0
2007 03 22    12 00.25   +06 27.2    1.644    2.636   173.1     2.6    10.0
2007 03 27    11 55.83   +07 00.3    1.647    2.632   168.7     4.3    10.1
2007 04 01    11 51.54   +07 30.7    1.656    2.629   163.2     6.3    10.2
2007 04 06    11 47.52   +07 57.5    1.673    2.625   157.5     8.4    10.3
2007 04 11    11 43.86   +08 20.2    1.696    2.621   151.7    10.4    10.5
2007 04 16    11 40.67   +08 38.4    1.724    2.618   146.1    12.3    10.6
2007 04 21    11 38.01   +08 51.8    1.758    2.614   140.6    14.1    10.7
2007 04 26    11 35.95   +09 00.3    1.797    2.610   135.3    15.7    10.8
2007 05 01    11 34.52   +09 04.0    1.840    2.606   130.1    17.2    10.9
2007 05 06    11 33.71   +09 02.9    1.887    2.602   125.2    18.5    11.0
2007 05 11    11 33.55   +08 57.3    1.937    2.598   120.4    19.6    11.0
2007 05 16    11 34.00   +08 47.5    1.989    2.593   115.7    20.6    11.1
2007 05 21    11 35.05   +08 33.6    2.044    2.589   111.3    21.4    11.2
2007 05 26    11 36.68   +08 15.9    2.100    2.585   107.0    22.0    11.3
2007 05 31    11 38.85   +07 54.8    2.158    2.580   102.9    22.5    11.4
2007 06 05    11 41.52   +07 30.5    2.217    2.576    98.9    22.9    11.4
2007 06 10    11 44.67   +07 03.3    2.276    2.571    95.0    23.2    11.5

Back to Bright Minor Planets

Astronomical Headlines Index

MPC


Valid HTML 4.01!